Time,TemperatureF,DewpointF,PressureIn,WindDirection,WindDirectionDegrees,WindSpeedMPH,WindSpeedGustMPH,Humidity,HourlyPrecipIn,Conditions,Clouds,dailyrainin,SolarRadiationWatts/m^2,SoftwareType,DateUTC
2013-01-18 00:11:00,16.7,0.9,30.05,NW,322,3.0,9.0,49,0.00,,CLR,0.00,0.00,VWS V14.01,2013-01-18 05:11:00,
2013-01-18 00:21:00,16.4,0.6,30.06,NNE,29,4.0,6.0,49,0.00,,CLR,0.00,0.00,VWS V14.01,2013-01-18 05:21:00,
2013-01-18 00:31:00,16.2,0.4,30.08,NW,312,3.0,10.0,49,0.00,,CLR,0.00,0.00,VWS V14.01,2013-01-18 05:31:00,
2013-01-18 00:41:00,16.1,0.8,30.08,WNW,296,4.0,5.0,50,0.00,,BKN070,0.00,0.00,VWS V14.01,2013-01-18 05:41:00,
2013-01-18 00:51:00,15.9,-0.3,30.09,WNW,296,4.0,4.0,48,0.00,,BKN070,0.00,0.00,VWS V14.01,2013-01-18 05:51:00,
2013-01-18 01:01:00,15.9,-0.8,30.10,WNW,296,4.0,4.0,47,0.00,,BKN070,0.00,0.00,VWS V14.01,2013-01-18 06:01:00,
2013-01-18 01:11:00,15.6,-2.0,30.10,WNW,296,4.0,4.0,45,0.00,,CLR,0.00,0.00,VWS V14.01,2013-01-18 06:11:00,
2013-01-18 01:21:00,15.4,-1.2,30.09,WNW,296,4.0,4.0,47,0.00,,CLR,0.00,0.00,VWS V14.01,2013-01-18 06:21:00,
2013-01-18 01:31:00,15.2,-1.9,30.09,WNW,296,4.0,4.0,46,0.00,,CLR,0.00,0.00,VWS V14.01,2013-01-18 06:31:00,
2013-01-18 01:41:00,15.1,-3.4,30.09,WNW,296,4.0,4.0,43,0.00,,OVC070,0.00,0.00,VWS V14.01,2013-01-18 06:41:00,
2013-01-18 01:51:00,14.9,-4.5,30.11,WNW,296,4.0,4.0,41,0.00,,OVC070,0.00,0.00,VWS V14.01,2013-01-18 06:51:00,
2013-01-18 02:01:00,14.6,-6.9,30.09,WNW,296,4.0,4.0,37,0.00,,OVC070,0.00,0.00,VWS V14.01,2013-01-18 07:01:00,
2013-01-18 02:11:00,14.4,-8.2,30.09,WNW,296,4.0,4.0,35,0.00,,OVC070,0.00,0.00,VWS V14.01,2013-01-18 07:11:00,
2013-01-18 02:21:00,14.3,-6.7,30.12,WNW,296,4.0,4.0,38,0.00,,OVC070,0.00,0.00,VWS V14.01,2013-01-18 07:21:00,
2013-01-18 02:31:00,14.1,-8.5,30.13,WNW,296,4.0,4.0,35,0.00,,OVC070,0.00,0.00,VWS V14.01,2013-01-18 07:31:00,
2013-01-18 02:41:00,14.0,-8.6,30.13,WNW,296,4.0,4.0,35,0.00,,OVC080,0.00,0.00,VWS V14.01,2013-01-18 07:41:00,
2013-01-18 02:51:00,13.8,-7.1,30.12,WNW,296,4.0,4.0,38,0.00,,OVC080,0.00,0.00,VWS V14.01,2013-01-18 07:51:00,
2013-01-18 03:01:00,13.5,-9.1,30.12,WNW,296,4.0,4.0,35,0.00,,OVC080,0.00,0.00,VWS V14.01,2013-01-18 08:01:00,
2013-01-18 03:11:00,13.1,-9.4,30.12,West,271,6.0,10.0,35,0.00,,OVC080,0.00,0.00,VWS V14.01,2013-01-18 08:11:00,
2013-01-18 03:21:00,12.6,-8.2,30.13,West,280,5.0,13.0,38,0.00,,OVC080,0.00,0.00,VWS V14.01,2013-01-18 08:21:00,
2013-01-18 03:31:00,12.3,-7.9,30.13,WNW,285,6.0,11.0,39,0.00,,OVC080,0.00,0.00,VWS V14.01,2013-01-18 08:31:00,
2013-01-18 03:41:00,12.1,-9.2,30.13,WNW,297,3.0,10.0,37,0.00,,OVC080,0.00,0.00,VWS V14.01,2013-01-18 08:41:00,
2013-01-18 03:51:00,11.7,-8.5,30.14,NW,318,4.0,11.0,39,0.00,,OVC080,0.00,0.00,VWS V14.01,2013-01-18 08:51:00,
2013-01-18 04:01:00,11.6,-9.1,30.13,WNW,299,4.0,13.0,38,0.00,,OVC080,0.00,0.00,VWS V14.01,2013-01-18 09:01:00,
2013-01-18 04:11:00,11.4,-8.7,30.13,WNW,288,3.0,11.0,39,0.00,,SCT090,0.00,0.00,VWS V14.01,2013-01-18 09:11:00,
2013-01-18 04:21:00,11.1,-7.0,30.14,WSW,256,4.0,7.0,43,0.00,,SCT090,0.00,0.00,VWS V14.01,2013-01-18 09:21:00,
2013-01-18 04:31:00,10.5,-7.6,30.15,West,260,2.0,6.0,43,0.00,,SCT090,0.00,0.00,VWS V14.01,2013-01-18 09:31:00,
2013-01-18 04:41:00,10.2,-7.4,30.15,NW,315,0.0,8.0,44,0.00,,CLR,0.00,0.00,VWS V14.01,2013-01-18 09:41:00,
2013-01-18 04:51:00,10.0,-7.6,30.15,NNW,328,0.0,6.0,44,0.00,,CLR,0.00,0.00,VWS V14.01,2013-01-18 09:51:00,
2013-01-18 05:01:00,9.7,-7.8,30.15,NW,322,5.0,13.0,44,0.00,,CLR,0.00,0.00,VWS V14.01,2013-01-18 10:01:00,
2013-01-18 05:11:00,9.2,-7.8,30.15,NW,326,5.0,14.0,45,0.00,,CLR,0.00,0.00,VWS V14.01,2013-01-18 10:11:00,
2013-01-18 05:21:00,9.0,-9.4,30.17,WNW,288,4.0,11.0,42,0.00,,CLR,0.00,0.00,VWS V14.01,2013-01-18 10:21:00,
2013-01-18 05:31:00,8.6,-8.8,30.17,WNW,303,3.0,14.0,44,0.00,,CLR,0.00,0.00,VWS V14.01,2013-01-18 10:31:00,
2013-01-18 05:41:00,8.3,-9.1,30.17,NW,321,5.0,11.0,44,0.00,,CLR,0.00,0.00,VWS V14.01,2013-01-18 10:41:00,
2013-01-18 05:51:00,8.1,-10.2,30.19,WNW,289,8.0,11.0,42,0.00,,CLR,0.00,0.00,VWS V14.01,2013-01-18 10:51:00,
2013-01-18 06:01:00,7.7,-11.1,30.19,WNW,283,5.0,10.0,41,0.00,,CLR,0.00,0.00,VWS V14.01,2013-01-18 11:01:00,
2013-01-18 06:11:00,7.4,-12.4,30.19,WNW,300,5.0,12.0,39,0.00,,CLR,0.00,0.00,VWS V14.01,2013-01-18 11:11:00,
2013-01-18 06:21:00,7.0,-13.2,30.19,West,274,11.0,13.0,38,0.00,,CLR,0.00,0.00,VWS V14.01,2013-01-18 11:21:00,
2013-01-18 06:31:00,6.9,-12.8,30.21,WNW,293,8.0,13.0,39,0.00,,CLR,0.00,0.00,VWS V14.01,2013-01-18 11:31:00,
2013-01-18 06:41:00,6.9,-15.0,30.21,West,266,9.0,14.0,35,0.00,,CLR,0.00,0.00,VWS V14.01,2013-01-18 11:41:00,
2013-01-18 06:51:00,6.7,-15.1,30.22,WNW,302,4.0,14.0,35,0.00,,CLR,0.00,0.00,VWS V14.01,2013-01-18 11:51:00,
2013-01-18 07:11:00,6.1,-15.1,30.24,NNW,332,4.0,7.0,36,0.00,,CLR,0.00,0.00,VWS V14.01,2013-01-18 12:11:00,
2013-01-18 07:21:00,6.0,-14.1,30.24,WNW,303,5.0,10.0,38,0.00,,CLR,0.00,5.00,VWS V14.01,2013-01-18 12:21:00,
2013-01-18 07:31:00,5.8,-14.3,30.25,NW,319,4.0,11.0,38,0.00,,CLR,0.00,7.00,VWS V14.01,2013-01-18 12:31:00,
2013-01-18 07:41:00,5.8,-13.8,30.25,NW,319,3.0,10.0,39,0.00,,CLR,0.00,11.00,VWS V14.01,2013-01-18 12:41:00,
2013-01-18 07:51:00,5.8,-13.3,30.26,NW,326,3.0,11.0,40,0.00,,CLR,0.00,12.00,VWS V14.01,2013-01-18 12:51:00,
2013-01-18 08:01:00,6.0,-13.6,30.27,WNW,302,4.0,11.0,39,0.00,,CLR,0.00,14.00,VWS V14.01,2013-01-18 13:01:00,
2013-01-18 08:11:00,6.0,-13.1,30.27,WNW,293,7.0,13.0,40,0.00,,CLR,0.00,18.00,VWS V14.01,2013-01-18 13:11:00,
2013-01-18 08:21:00,6.1,-13.0,30.28,WNW,283,6.0,15.0,40,0.00,,CLR,0.00,21.00,VWS V14.01,2013-01-18 13:21:00,
2013-01-18 08:31:00,6.1,-14.6,30.29,West,269,6.0,13.0,37,0.00,,CLR,0.00,26.00,VWS V14.01,2013-01-18 13:31:00,
2013-01-18 08:41:00,6.3,-13.9,30.29,WSW,255,4.0,14.0,38,0.00,,CLR,0.00,30.00,VWS V14.01,2013-01-18 13:41:00,
2013-01-18 08:51:00,6.9,-14.4,30.29,WNW,294,5.0,14.0,36,0.00,,CLR,0.00,25.00,VWS V14.01,2013-01-18 13:51:00,
2013-01-18 09:01:00,7.2,-15.3,30.30,NW,322,7.0,13.0,34,0.00,,CLR,0.00,40.00,VWS V14.01,2013-01-18 14:01:00,
2013-01-18 09:11:00,7.7,-13.7,30.30,West,281,6.0,12.0,36,0.00,,CLR,0.00,42.00,VWS V14.01,2013-01-18 14:11:00,
2013-01-18 09:21:00,7.7,-15.4,30.30,West,261,12.0,16.0,33,0.00,,CLR,0.00,74.00,VWS V14.01,2013-01-18 14:21:00,
2013-01-18 09:31:00,7.9,-13.0,30.31,West,271,16.0,16.0,37,0.00,,CLR,0.00,67.00,VWS V14.01,2013-01-18 14:31:00,
2013-01-18 09:41:00,8.1,-14.4,30.31,West,277,11.0,17.0,34,0.00,,CLR,0.00,137.00,VWS V14.01,2013-01-18 14:41:00,
2013-01-18 09:51:00,8.6,-14.0,30.31,West,276,13.0,15.0,34,0.00,,CLR,0.00,139.00,VWS V14.01,2013-01-18 14:51:00,
2013-01-18 10:01:00,9.2,-12.3,30.32,NW,309,7.0,16.0,36,0.00,,CLR,0.00,278.00,VWS V14.01,2013-01-18 15:01:00,
2013-01-18 10:11:00,9.7,-13.6,30.32,West,280,10.0,17.0,33,0.00,,CLR,0.00,348.00,VWS V14.01,2013-01-18 15:11:00,
2013-01-18 10:21:00,10.2,-14.4,30.32,WNW,296,6.0,16.0,31,0.00,,CLR,0.00,315.00,VWS V14.01,2013-01-18 15:21:00,
2013-01-18 10:31:00,10.9,-11.4,30.32,NW,311,14.0,22.0,35,0.00,,CLR,0.00,413.00,VWS V14.01,2013-01-18 15:31:00,
2013-01-18 10:41:00,11.6,-9.6,30.32,WNW,303,13.0,25.0,37,0.00,,CLR,0.00,392.00,VWS V14.01,2013-01-18 15:41:00,
2013-01-18 10:51:00,11.6,-11.3,30.31,WNW,293,12.0,23.0,34,0.00,,CLR,0.00,135.00,VWS V14.01,2013-01-18 15:51:00,
2013-01-18 11:01:00,11.9,-11.1,30.31,North,351,14.0,19.0,34,0.00,,CLR,0.00,44.00,VWS V14.01,2013-01-18 16:01:00,
2013-01-18 11:11:00,12.1,-9.2,30.31,NW,304,6.0,19.0,37,0.00,,CLR,0.00,163.00,VWS V14.01,2013-01-18 16:11:00,
2013-01-18 11:21:00,12.3,-10.1,30.31,WNW,295,15.0,25.0,35,0.00,,CLR,0.00,232.00,VWS V14.01,2013-01-18 16:21:00,
2013-01-18 11:31:00,12.4,-10.6,30.31,WNW,291,10.0,19.0,34,0.00,,CLR,0.00,216.00,VWS V14.01,2013-01-18 16:31:00,
2013-01-18 11:41:00,12.6,-9.9,30.31,West,272,4.0,23.0,35,0.00,,CLR,0.00,214.00,VWS V14.01,2013-01-18 16:41:00,
2013-01-18 11:51:00,12.6,-11.0,30.31,NW,326,3.0,19.0,33,0.00,,CLR,0.00,116.00,VWS V14.01,2013-01-18 16:51:00,
2013-01-18 12:01:00,12.8,-9.1,30.31,WNW,297,15.0,20.0,36,0.00,,CLR,0.00,121.00,VWS V14.01,2013-01-18 17:01:00,
2013-01-18 12:11:00,13.5,-7.4,30.31,NW,320,6.0,19.0,38,0.00,,CLR,0.00,188.00,VWS V14.01,2013-01-18 17:11:00,
2013-01-18 12:21:00,13.8,-8.2,30.30,WNW,288,6.0,15.0,36,0.00,,CLR,0.00,218.00,VWS V14.01,2013-01-18 17:21:00,
2013-01-18 12:31:00,14.3,-7.2,30.29,WNW,295,8.0,17.0,37,0.00,,CLR,0.00,100.00,VWS V14.01,2013-01-18 17:31:00,
2013-01-18 12:41:00,14.1,-7.9,30.29,NNW,348,3.0,16.0,36,0.00,,CLR,0.00,86.00,VWS V14.01,2013-01-18 17:41:00,
2013-01-18 12:51:00,14.3,-7.8,30.30,West,280,2.0,14.0,36,0.00,,CLR,0.00,185.00,VWS V14.01,2013-01-18 17:51:00,
2013-01-18 13:01:00,14.1,-9.1,30.30,West,270,7.0,12.0,34,0.00,,CLR,0.00,213.00,VWS V14.01,2013-01-18 18:01:00,
2013-01-18 13:11:00,14.8,-8.5,30.30,WNW,288,5.0,11.0,34,0.00,,CLR,0.00,49.00,VWS V14.01,2013-01-18 18:11:00,
2013-01-18 13:21:00,15.1,-7.0,30.30,West,269,6.0,14.0,36,0.00,,CLR,0.00,40.00,VWS V14.01,2013-01-18 18:21:00,
2013-01-18 13:31:00,15.2,-8.1,30.30,West,271,0.0,10.0,34,0.00,,CLR,0.00,42.00,VWS V14.01,2013-01-18 18:31:00,
2013-01-18 13:41:00,15.2,-6.4,30.30,North,10,0.0,7.0,37,0.00,,CLR,0.00,114.00,VWS V14.01,2013-01-18 18:41:00,
2013-01-18 13:51:00,15.9,-7.5,30.30,ENE,58,5.0,11.0,34,0.00,,CLR,0.00,130.00,VWS V14.01,2013-01-18 18:51:00,
2013-01-18 14:01:00,15.7,-5.9,30.30,NE,44,6.0,11.0,37,0.00,,CLR,0.00,155.00,VWS V14.01,2013-01-18 19:01:00,
2013-01-18 14:11:00,15.9,-5.2,30.30,WSW,248,5.0,7.0,38,0.00,,CLR,0.00,111.00,VWS V14.01,2013-01-18 19:11:00,
2013-01-18 14:21:00,16.5,-8.2,30.30,West,280,14.0,17.0,32,0.00,,CLR,0.00,42.00,VWS V14.01,2013-01-18 19:21:00,
2013-01-18 14:31:00,17.2,-6.3,30.31,WNW,295,10.0,26.0,34,0.00,,CLR,0.00,33.00,VWS V14.01,2013-01-18 19:31:00,
2013-01-18 14:41:00,17.5,-8.0,30.31,West,277,22.0,22.0,31,0.00,,CLR,0.00,32.00,VWS V14.01,2013-01-18 19:41:00,
2013-01-18 14:51:00,17.8,-7.7,30.32,West,274,12.0,24.0,31,0.00,,CLR,0.00,30.00,VWS V14.01,2013-01-18 19:51:00,
2013-01-18 15:01:00,18.0,-6.9,30.33,West,266,18.0,20.0,32,0.00,,CLR,0.00,28.00,VWS V14.01,2013-01-18 20:01:00,
2013-01-18 15:11:00,18.1,-7.4,30.33,West,261,22.0,22.0,31,0.00,,CLR,0.00,26.00,VWS V14.01,2013-01-18 20:11:00,
2013-01-18 15:21:00,18.1,-8.1,30.33,WNW,285,17.0,22.0,30,0.00,,CLR,0.00,28.00,VWS V14.01,2013-01-18 20:21:00,
2013-01-18 15:31:00,18.0,-7.5,30.32,WNW,293,12.0,20.0,31,0.00,,CLR,0.00,23.00,VWS V14.01,2013-01-18 20:31:00,
2013-01-18 15:41:00,17.8,-6.4,30.32,West,266,11.0,20.0,33,0.00,,CLR,0.00,19.00,VWS V14.01,2013-01-18 20:41:00,
2013-01-18 15:51:00,17.7,-7.8,30.32,West,260,10.0,14.0,31,0.00,,CLR,0.00,18.00,VWS V14.01,2013-01-18 20:51:00,
2013-01-18 16:01:00,17.7,-7.8,30.32,WNW,294,5.0,19.0,31,0.00,,CLR,0.00,14.00,VWS V14.01,2013-01-18 21:01:00,
2013-01-18 16:11:00,17.0,-5.3,30.32,West,276,5.0,12.0,36,0.00,,CLR,0.00,11.00,VWS V14.01,2013-01-18 21:11:00,
2013-01-18 16:21:00,16.2,-4.9,30.32,West,263,7.0,11.0,38,0.00,,CLR,0.00,9.00,VWS V14.01,2013-01-18 21:21:00,
2013-01-18 16:31:00,15.6,-3.4,30.33,West,268,6.0,10.0,42,0.00,,CLR,0.00,5.00,VWS V14.01,2013-01-18 21:31:00,
2013-01-18 16:41:00,14.8,-3.6,30.33,WSW,252,5.0,7.0,43,0.00,,CLR,0.00,0.00,VWS V14.01,2013-01-18 21:41:00,
2013-01-18 16:51:00,14.8,-4.6,30.34,WSW,251,2.0,6.0,41,0.00,,CLR,0.00,0.00,VWS V14.01,2013-01-18 21:51:00,
2013-01-18 17:01:00,14.3,-3.6,30.34,WSW,243,3.0,6.0,44,0.00,,CLR,0.00,0.00,VWS V14.01,2013-01-18 22:01:00,
2013-01-18 17:11:00,13.8,-2.7,30.34,WSW,249,2.0,6.0,47,0.00,,CLR,0.00,0.00,VWS V14.01,2013-01-18 22:11:00,
2013-01-18 17:21:00,14.1,-3.8,30.36,West,270,1.0,4.0,44,0.00,,CLR,0.00,0.00,VWS V14.01,2013-01-18 22:21:00,
2013-01-18 17:31:00,13.3,-2.7,30.36,West,270,0.0,2.0,48,0.00,,CLR,0.00,0.00,VWS V14.01,2013-01-18 22:31:00,
2013-01-18 17:41:00,12.9,-3.1,30.36,West,270,0.0,0.0,48,0.00,,CLR,0.00,0.00,VWS V14.01,2013-01-18 22:41:00,
2013-01-18 17:51:00,12.4,-2.7,30.37,West,270,0.0,2.0,50,0.00,,CLR,0.00,0.00,VWS V14.01,2013-01-18 22:51:00,
2013-01-18 18:01:00,11.7,-2.9,30.37,West,270,2.0,2.0,51,0.00,,CLR,0.00,0.00,VWS V14.01,2013-01-18 23:01:00,
2013-01-18 18:11:00,11.4,-2.4,30.37,West,270,0.0,2.0,53,0.00,,CLR,0.00,0.00,VWS V14.01,2013-01-18 23:11:00,
2013-01-18 18:21:00,11.4,-2.0,30.37,West,270,0.0,0.0,54,0.00,,CLR,0.00,0.00,VWS V14.01,2013-01-18 23:21:00,
2013-01-18 18:31:00,11.2,-2.6,30.37,West,270,0.0,2.0,53,0.00,,CLR,0.00,0.00,VWS V14.01,2013-01-18 23:31:00,
2013-01-18 18:41:00,10.5,-2.1,30.37,West,270,0.0,1.0,56,0.00,,CLR,0.00,0.00,VWS V14.01,2013-01-18 23:41:00,
2013-01-18 18:51:00,9.9,-1.2,30.37,West,270,0.0,2.0,60,0.00,,CLR,0.00,0.00,VWS V14.01,2013-01-18 23:51:00,
2013-01-18 19:01:00,10.2,-0.2,30.37,West,270,0.0,0.0,62,0.00,,CLR,0.00,0.00,VWS V14.01,2013-01-19 00:01:00,
2013-01-18 19:11:00,9.3,-0.4,30.37,West,270,0.0,2.0,64,0.00,,CLR,0.00,0.00,VWS V14.01,2013-01-19 00:11:00,
2013-01-18 19:21:00,9.9,-0.2,30.37,West,270,0.0,1.0,63,0.00,,CLR,0.00,0.00,VWS V14.01,2013-01-19 00:21:00,
2013-01-18 19:31:00,9.5,0.1,30.37,West,270,0.0,3.0,65,0.00,,CLR,0.00,0.00,VWS V14.01,2013-01-19 00:31:00,
2013-01-18 19:41:00,8.6,-0.1,30.37,West,270,2.0,3.0,67,0.00,,CLR,0.00,0.00,VWS V14.01,2013-01-19 00:41:00,
2013-01-18 19:51:00,7.2,-0.5,30.38,West,270,0.0,3.0,70,0.00,,CLR,0.00,0.00,VWS V14.01,2013-01-19 00:51:00,
2013-01-18 20:11:00,7.0,0.5,30.38,SW,233,2.0,3.0,74,0.00,,CLR,0.00,0.00,VWS V14.01,2013-01-19 01:11:00,
2013-01-18 20:21:00,7.9,0.5,30.38,SW,233,2.0,2.0,71,0.00,,CLR,0.00,0.00,VWS V14.01,2013-01-19 01:21:00,
2013-01-18 20:31:00,8.1,-0.3,30.38,SW,233,0.0,2.0,68,0.00,,CLR,0.00,0.00,VWS V14.01,2013-01-19 01:31:00,
2013-01-18 20:41:00,8.1,0.1,30.38,SW,233,1.0,2.0,69,0.00,,CLR,0.00,0.00,VWS V14.01,2013-01-19 01:41:00,
2013-01-18 20:51:00,7.7,0.0,30.38,SW,233,3.0,3.0,70,0.00,,CLR,0.00,0.00,VWS V14.01,2013-01-19 01:51:00,
2013-01-18 21:01:00,7.4,0.0,30.38,SW,232,2.0,4.0,71,0.00,,CLR,0.00,0.00,VWS V14.01,2013-01-19 02:01:00,
2013-01-18 21:11:00,8.1,1.0,30.38,WSW,248,3.0,5.0,72,0.00,,CLR,0.00,0.00,VWS V14.01,2013-01-19 02:11:00,
2013-01-18 21:21:00,9.0,0.9,30.37,West,261,5.0,5.0,69,0.00,,CLR,0.00,0.00,VWS V14.01,2013-01-19 02:21:00,
2013-01-18 21:31:00,9.7,1.0,30.37,West,259,6.0,7.0,67,0.00,,CLR,0.00,0.00,VWS V14.01,2013-01-19 02:31:00,
2013-01-18 21:41:00,10.5,1.1,30.37,SSW,200,1.0,6.0,65,0.00,,CLR,0.00,0.00,VWS V14.01,2013-01-19 02:41:00,
2013-01-18 21:51:00,11.4,1.3,30.37,West,262,2.0,6.0,63,0.00,,CLR,0.00,0.00,VWS V14.01,2013-01-19 02:51:00,
2013-01-18 22:01:00,11.6,1.1,30.36,West,271,4.0,6.0,62,0.00,,CLR,0.00,0.00,VWS V14.01,2013-01-19 03:01:00,
2013-01-18 22:21:00,10.9,1.5,30.35,West,262,0.0,4.0,65,0.00,,CLR,0.00,0.00,VWS V14.01,2013-01-19 03:21:00,
2013-01-18 22:41:00,12.1,3.3,30.35,West,270,7.0,7.0,67,0.00,,CLR,0.00,0.00,VWS V14.01,2013-01-19 03:41:00,
2013-01-18 22:51:00,12.9,2.7,30.35,West,274,1.0,7.0,63,0.00,,CLR,0.00,0.00,VWS V14.01,2013-01-19 03:51:00,
2013-01-18 23:11:00,13.3,3.8,30.35,West,271,0.0,5.0,65,0.00,,CLR,0.00,0.00,VWS V14.01,2013-01-19 04:11:00,
2013-01-18 23:21:00,13.5,3.6,30.33,West,271,1.0,3.0,64,0.00,,CLR,0.00,0.00,VWS V14.01,2013-01-19 04:21:00,
2013-01-18 23:31:00,13.5,3.9,30.32,West,271,2.0,3.0,65,0.00,,CLR,0.00,0.00,VWS V14.01,2013-01-19 04:31:00,
2013-01-18 23:41:00,14.1,4.2,30.32,West,271,0.0,4.0,64,0.00,,BKN080,0.00,0.00,VWS V14.01,2013-01-19 04:41:00,
2013-01-18 23:51:00,14.8,4.2,30.30,West,271,0.0,1.0,62,0.00,,BKN080,0.00,0.00,VWS V14.01,2013-01-19 04:51:00,